DW4338 Bergen NO current weather conditions

sailwx.info

Wind from 279 at 67 knots gusting 97

Air temperature 10.0° C
Dewpoint 7.4° C

Last reported at 2019-Sep-15 07:01 UTC.
Time now 2019-Sep-15 07:42 UTC

Location: N 60°31' E 004°54'.
View on Google Maps.

See reports from other nearby stations

  
Tides and Currents Weather Stations Pressure Air Temp Water Temp Dewpoint Dewpoint Depression Visibility Wind Speed Wind Dir Waves Ship Positions
date/time (UTC)wind fromknots sea level pressurealtimeterstation pressurevisibilityair tempwater tempwave heightnotes
2019-Sep-15 07:01 279 67 gusting 97 10.0
2019-Sep-15 06:47 317 63 gusting 93 9.4
2019-Sep-15 06:31 312 76 gusting 103 10.0
2019-Sep-15 06:16 260 53 gusting 93 10.0
2019-Sep-15 06:01 278 56 gusting 86 9.4
2019-Sep-15 05:46 312 66 gusting 92 9.4
2019-Sep-15 05:31 281 48 gusting 106 8.9
2019-Sep-15 05:16 286 66 gusting 85 9.4
2019-Sep-15 05:01 297 55 gusting 94 10.0
2019-Sep-15 04:46 265 63 gusting 97 10.0
2019-Sep-15 04:31 288 60 gusting 89 10.0
2019-Sep-15 04:17 281 51 gusting 79 10.0
2019-Sep-15 04:00 291 51 gusting 92 9.4
2019-Sep-15 03:46 300 53 gusting 94 10.0
2019-Sep-15 03:31 280 72 gusting 104 10.0
2019-Sep-15 03:15 278 62 gusting 84 10.0
2019-Sep-15 03:01 290 65 gusting 88 10.6
2019-Sep-15 02:46 288 66 gusting 91 10.6
2019-Sep-15 02:32 285 66 gusting 100 10.6
2019-Sep-15 02:16 324 65 gusting 89 10.0
2019-Sep-15 02:00 294 54 gusting 85 8.9
2019-Sep-15 01:46 284 61 gusting 79 9.4
2019-Sep-15 01:31 304 59 gusting 99 8.9
2019-Sep-15 01:16 227 39 gusting 72 11.1
2019-Sep-15 01:01 284 53 gusting 72 11.1
2019-Sep-15 00:45 307 47 gusting 82 10.6
2019-Sep-15 00:30 294 41 gusting 106 10.6
2019-Sep-15 00:15 302 53 gusting 81 11.1
2019-Sep-15 00:00 267 46 gusting 76 11.7
2019-Sep-14 23:45 275 54 gusting 79 11.7
2019-Sep-14 23:31 271 67 gusting 95 11.7
2019-Sep-14 23:00 315 63 gusting 85 11.7
2019-Sep-14 22:45 290 63 gusting 84 11.7
2019-Sep-14 22:30 263 47 gusting 73 12.2
2019-Sep-14 22:15 304 50 gusting 73 12.2
2019-Sep-14 22:02 279 60 gusting 79 12.2
2019-Sep-14 21:46 288 54 gusting 90 12.2
2019-Sep-14 21:31 273 52 gusting 80 12.2
2019-Sep-14 21:18 286 39 gusting 71 12.8
2019-Sep-14 21:02 263 48 gusting 80 12.8
2019-Sep-14 20:46 252 39 gusting 71 12.2
2019-Sep-14 20:32 288 44 gusting 71 12.2
2019-Sep-14 20:16 249 36 gusting 71 11.7
2019-Sep-14 20:01 246 39 gusting 75 12.2
2019-Sep-14 19:49 284 53 gusting 83 12.2
2019-Sep-14 19:31 300 52 gusting 89 12.2
2019-Sep-14 19:16 263 45 gusting 76 12.2
2019-Sep-14 19:01 273 46 gusting 80 12.2
2019-Sep-14 18:47 234 56 gusting 87 12.2
2019-Sep-14 18:31 249 44 gusting 80 11.7
2019-Sep-14 18:16 285 33 gusting 81 11.7
2019-Sep-14 18:01 235 55 gusting 89 11.7
2019-Sep-14 17:46 234 48 gusting 92 11.7
2019-Sep-14 17:30 271 54 gusting 85 11.7
2019-Sep-14 17:15 243 47 gusting 92 11.7
2019-Sep-14 17:01 250 56 gusting 90 11.7
2019-Sep-14 16:46 196 51 gusting 92 11.7
2019-Sep-14 16:31 223 45 gusting 75 11.1
2019-Sep-14 16:15 233 47 gusting 86 11.1
2019-Sep-14 16:00 246 46 gusting 70 11.1
2019-Sep-14 15:45 229 53 gusting 79 11.1
2019-Sep-14 15:30 217 41 gusting 77 11.1
2019-Sep-14 15:15 224 50 gusting 85 10.6
2019-Sep-14 15:00 175 47 gusting 76 10.6
2019-Sep-14 14:45 238 44 gusting 82 10.6
2019-Sep-14 14:30 214 68 gusting 94 11.1
2019-Sep-14 14:15 248 45 gusting 82 11.1
2019-Sep-14 14:03 215 48 gusting 69 11.1
2019-Sep-14 13:48 225 44 gusting 65 11.1
2019-Sep-14 13:33 211 34 gusting 67 11.1
2019-Sep-14 13:16 216 32 gusting 66 10.6
2019-Sep-14 13:01 179 26 gusting 66 10.6
2019-Sep-14 12:46 202 36 gusting 65 10.6
2019-Sep-14 12:31 243 42 gusting 70 10.6
2019-Sep-14 12:15 254 48 gusting 75 10.6
2019-Sep-14 12:01 233 50 gusting 75 10.6
2019-Sep-14 11:46 219 33 gusting 67 10.6
2019-Sep-14 11:31 262 30 gusting 51 11.1
2019-Sep-14 11:15 261 30 gusting 58 11.7
2019-Sep-14 11:00 198 28 gusting 52 11.7
2019-Sep-14 10:45 238 34 gusting 57 12.2
2019-Sep-14 10:31 250 29 gusting 57 11.7
2019-Sep-14 10:15 219 26 gusting 40 11.7
2019-Sep-14 10:01 219 20 gusting 46 11.7
2019-Sep-14 09:45 240 25 gusting 46 11.7
2019-Sep-14 09:30 229 27 gusting 51 11.7
2019-Sep-14 09:15 252 31 gusting 51 11.7
2019-Sep-14 09:00 262 27 gusting 59 11.7
2019-Sep-14 08:45 237 33 gusting 54 11.7
2019-Sep-14 08:30 253 25 gusting 45 11.7
2019-Sep-14 08:15 261 29 gusting 50 11.7
2019-Sep-14 08:00 259 22 gusting 43 11.7
2019-Sep-14 07:45 250 23 gusting 45 11.7
2019-Sep-14 07:30 292 23 gusting 49 11.7
2019-Sep-14 07:15 288 21 gusting 42 11.7
2019-Sep-14 07:00 257 20 gusting 42 11.7
2019-Sep-14 06:45 313 25 gusting 42 11.7
2019-Sep-14 06:17 270 25 gusting 46 11.1
2019-Sep-14 06:01 240 19 gusting 34 11.1
2019-Sep-14 05:47 290 24 gusting 38 11.1
2019-Sep-14 05:32 272 19 gusting 39 11.1
2019-Sep-14 05:17 254 17 gusting 41 11.1
2019-Sep-14 05:02 243 19 gusting 36 11.1
2019-Sep-14 04:47 268 18 gusting 28 11.1
2019-Sep-14 04:31 267 20 gusting 46 11.1
2019-Sep-14 04:16 321 13 gusting 38 11.1
2019-Sep-14 04:01 246 24 gusting 42 10.6
2019-Sep-14 03:46 262 26 gusting 45 10.6
2019-Sep-14 03:31 257 28 gusting 39 10.6
2019-Sep-14 03:16 271 29 gusting 47 10.6
2019-Sep-14 03:01 283 29 gusting 41 10.6
2019-Sep-14 02:47 290 33 gusting 48 10.6
2019-Sep-14 02:31 265 35 gusting 49 10.6
2019-Sep-14 02:17 306 30 gusting 52 10.6
2019-Sep-14 02:01 279 37 gusting 58 10.6
2019-Sep-14 01:45 298 32 gusting 51 10.6
2019-Sep-14 01:31 310 33 gusting 65 10.6
2019-Sep-14 01:16 258 26 gusting 45 11.1
2019-Sep-14 01:01 296 33 gusting 53 11.1
2019-Sep-14 00:45 291 37 gusting 53 11.1
2019-Sep-14 00:30 292 31 gusting 57 10.6
2019-Sep-14 00:15 272 35 gusting 56 10.6
2019-Sep-14 00:00 286 19 gusting 46 10.6
2019-Sep-13 23:46 290 36 gusting 55 10.6
2019-Sep-13 23:31 268 35 gusting 65 10.6
2019-Sep-13 23:15 302 31 gusting 55 10.6
2019-Sep-13 23:00 276 37 gusting 56 10.6
2019-Sep-13 22:45 296 21 gusting 59 10.0
2019-Sep-13 22:30 285 31 gusting 60 10.0
2019-Sep-13 22:15 236 29 gusting 68 10.0
2019-Sep-13 22:00 266 26 gusting 46 10.6
2019-Sep-13 21:45 267 36 gusting 51 10.0
2019-Sep-13 21:30 277 30 gusting 45 9.4
2019-Sep-13 21:15 293 46 gusting 76 10.0
2019-Sep-13 21:00 280 28 gusting 58 11.1
2019-Sep-13 20:45 284 36 gusting 57 10.6
2019-Sep-13 20:30 310 33 gusting 50 10.6
2019-Sep-13 20:15 291 16 gusting 36 10.0
2019-Sep-13 20:00 294 19 gusting 34 9.4
2019-Sep-13 19:45 286 36 gusting 56 11.1
2019-Sep-13 19:30 288 39 gusting 55 11.1
2019-Sep-13 19:15 276 35 gusting 55 11.1
2019-Sep-13 19:00 300 39 gusting 57 11.1
2019-Sep-13 18:45 286 37 gusting 62 10.6
2019-Sep-13 18:32 281 47 gusting 70 11.1
2019-Sep-13 18:17 279 45 gusting 66 10.6
2019-Sep-13 18:02 284 48 gusting 65 10.0
2019-Sep-13 17:46 248 52 gusting 75 10.0
2019-Sep-13 17:31 261 38 gusting 54 11.7
2019-Sep-13 17:16 290 36 gusting 65 11.7
2019-Sep-13 17:02 279 40 gusting 70 12.2
2019-Sep-13 16:47 286 46 gusting 65 12.2
2019-Sep-13 16:31 273 21 gusting 68 11.7
2019-Sep-13 16:01 309 46 gusting 77 12.2
2019-Sep-13 15:46 307 42 gusting 66 12.2
2019-Sep-13 15:31 284 52 gusting 65 12.2
2019-Sep-13 15:17 283 46 gusting 71 12.2
2019-Sep-13 15:02 339 46 gusting 73 11.7
2019-Sep-13 14:46 279 46 gusting 66 11.7
2019-Sep-13 14:31 302 35 gusting 63 10.6
2019-Sep-13 14:16 270 57 gusting 83 12.2
2019-Sep-13 14:01 296 48 gusting 76 12.8
2019-Sep-13 13:46 276 51 gusting 72 12.2
2019-Sep-13 13:30 302 46 gusting 71 12.2
2019-Sep-13 13:15 286 53 gusting 72 12.2
2019-Sep-13 13:01 286 52 gusting 82 12.2
2019-Sep-13 12:46 273 52 gusting 80 12.2
2019-Sep-13 12:31 247 51 gusting 75 11.7
2019-Sep-13 12:15 286 45 gusting 65 11.1
2019-Sep-13 12:00 331 26 gusting 53 12.8
2019-Sep-13 11:30 294 35 gusting 55 12.2
2019-Sep-13 11:00 289 44 gusting 65 12.2
2019-Sep-13 10:45 282 43 gusting 68 12.2
2019-Sep-13 10:30 329 42 gusting 62 12.2
2019-Sep-13 10:15 288 45 gusting 59 12.2
2019-Sep-13 10:00 299 46 gusting 62 11.7
2019-Sep-13 09:45 287 42 gusting 63 11.7
2019-Sep-13 09:30 290 39 gusting 66 11.7
2019-Sep-13 09:15 288 44 gusting 62 10.6
2019-Sep-13 09:00 275 39 gusting 67 10.0
2019-Sep-13 08:45 291 48 gusting 65 11.1
2019-Sep-13 08:31 298 47 gusting 59 11.1
2019-Sep-13 08:16 280 38 gusting 55 10.6
2019-Sep-13 08:02 295 41 gusting 66 10.6
2019-Sep-13 07:46 302 37 gusting 56 10.6
2019-Sep-13 07:32 311 36 gusting 57 9.4
2019-Sep-13 07:17 292 38 gusting 63 10.0
2019-Sep-13 07:02 309 33 gusting 53 9.4